| time (UTC) | temp F | wind direction | speed MPH | gust MPH | rain 1hr in | rain 24hr in | rain mn in | humidity % | barometer mb |
| 20260508071002 | 45 | 320 | 4.0 | 11.0 | 0.00 | 0.01 | 0.00 | 60 | 1004.7 |
| 20260508070003 | 45 | 300 | 7.0 | 12.0 | 0.00 | 0.01 | 0.00 | 60 | 1004.6 |
| 20260508065003 | 45 | 290 | 6.0 | 14.0 | 0.00 | 0.02 | 0.00 | 60 | 1004.6 |
| 20260508064002 | 46 | 298 | 9.0 | 14.0 | 0.00 | 0.02 | 0.00 | 59 | 1004.7 |
| 20260508063004 | 46 | 315 | 6.0 | 13.0 | 0.00 | 0.02 | 0.00 | 60 | 1004.7 |
| 20260508062002 | 46 | 302 | 7.0 | 10.0 | 0.00 | 0.02 | 0.00 | 59 | 1004.7 |
| 20260508061003 | 46 | 322 | 7.0 | 17.0 | 0.00 | 0.02 | 0.00 | 59 | 1004.8 |
| 20260508060003 | 46 | 318 | 5.0 | 14.0 | 0.00 | 0.02 | 0.00 | 58 | 1004.8 |
| 20260508055003 | 46 | 312 | 9.0 | 13.0 | 0.00 | 0.02 | 0.00 | 58 | 1004.9 |
| 20260508054003 | 46 | 326 | 7.0 | 11.0 | 0.00 | 0.02 | 0.00 | 58 | 1005.1 |
| 20260508053003 | 46 | 329 | 5.0 | 14.0 | 0.00 | 0.02 | 0.00 | 59 | 1005.2 |
| 20260508051003 | 46 | 290 | 7.0 | 13.0 | 0.00 | 0.05 | 0.00 | 61 | 1005.1 |
| 20260508050003 | 46 | 313 | 5.0 | 8.0 | 0.00 | 0.06 | 0.00 | 61 | 1005.2 |
| 20260508045003 | 46 | 329 | 2.0 | 10.0 | 0.00 | 0.06 | 0.00 | 60 | 1005.4 |
| 20260508044003 | 47 | 321 | 4.0 | 10.0 | 0.00 | 0.09 | 0.00 | 61 | 1005.5 |
| 20260508043024 | 47 | 322 | 3.0 | 9.0 | 0.00 | 0.13 | 0.00 | 62 | 1005.5 |
| 20260508042003 | 47 | 327 | 2.0 | 11.0 | 0.00 | 0.16 | 0.00 | 61 | 1005.4 |
| 20260508041003 | 47 | 312 | 5.0 | 9.0 | 0.00 | 0.16 | 0.00 | 58 | 1005.5 |
| 20260508040003 | 47 | 322 | 4.0 | 8.0 | 0.00 | 0.16 | 0.16 | 56 | 1005.5 |
| 20260508035003 | 48 | 343 | 4.0 | 7.0 | 0.00 | 0.16 | 0.16 | 55 | 1005.7 |
| 20260508034002 | 48 | 352 | 6.0 | 9.0 | 0.00 | 0.16 | 0.16 | 56 | 1005.6 |
| 20260508033003 | 49 | 340 | 6.0 | 12.0 | 0.00 | 0.16 | 0.16 | 56 | 1005.5 |
| 20260508032003 | 49 | 325 | 6.0 | 12.0 | 0.00 | 0.16 | 0.16 | 57 | 1005.5 |
| 20260508031003 | 49 | 319 | 6.0 | 12.0 | 0.00 | 0.16 | 0.16 | 54 | 1005.5 |
| 20260508030003 | 49 | 330 | 3.0 | 10.0 | 0.00 | 0.16 | 0.16 | 54 | 1005.7 |
| 20260508025003 | 49 | 350 | 4.0 | 10.0 | 0.00 | 0.16 | 0.16 | 54 | 1005.5 |
| 20260508024003 | 49 | 342 | 7.0 | 14.0 | 0.00 | 0.16 | 0.16 | 55 | 1005.3 |
| 20260508023002 | 50 | 330 | 6.0 | 12.0 | 0.00 | 0.16 | 0.16 | 54 | 1005.0 |
| 20260508022003 | 50 | 333 | 7.0 | 13.0 | 0.00 | 0.16 | 0.16 | 53 | 1005.1 |
| 20260508021002 | 50 | 355 | 4.0 | 12.0 | 0.00 | 0.16 | 0.16 | 54 | 1004.9 |
| 20260508020003 | 50 | 5 | 8.0 | 13.0 | 0.00 | 0.16 | 0.16 | 54 | 1004.9 |
| 20260508015003 | 51 | 351 | 6.0 | 12.0 | 0.00 | 0.16 | 0.16 | 54 | 1004.8 |
| 20260508014023 | 51 | 339 | 8.0 | 13.0 | 0.00 | 0.17 | 0.16 | 54 | 1004.8 |
| 20260508013003 | 51 | 346 | 7.0 | 13.0 | 0.00 | 0.17 | 0.16 | 56 | 1004.7 |
| 20260508012002 | 51 | 347 | 7.0 | 16.0 | 0.00 | 0.17 | 0.16 | 60 | 1004.7 |
| 20260508011024 | 50 | 339 | 6.0 | 12.0 | 0.00 | 0.18 | 0.16 | 68 | 1004.6 |
| 20260508010003 | 49 | 344 | 6.0 | 10.0 | 0.00 | 0.20 | 0.16 | 75 | 1004.6 |
| 20260508004003 | 47 | 329 | 5.0 | 8.0 | 0.00 | 0.25 | 0.16 | 83 | 1003.8 |
| 20260508003003 | 47 | 318 | 4.0 | 7.0 | 0.00 | 0.29 | 0.16 | 84 | 1003.9 |
| 20260508002003 | 47 | 288 | 4.0 | 7.0 | 0.00 | 0.32 | 0.16 | 85 | 1003.9 |
| 20260508001023 | 47 | 279 | 5.0 | 7.0 | 0.00 | 0.34 | 0.16 | 85 | 1003.8 |
| 20260508000003 | 47 | 268 | 4.0 | 7.0 | 0.00 | 0.36 | 0.16 | 85 | 1003.6 |
| 20260507235002 | 47 | 223 | 2.0 | 5.0 | 0.00 | 0.37 | 0.16 | 85 | 1003.6 |
| 20260507234024 | 48 | 226 | 1.0 | 8.0 | 0.00 | 0.40 | 0.16 | 84 | 1003.7 |
| 20260507233024 | 48 | 229 | 3.0 | 6.0 | 0.00 | 0.46 | 0.16 | 84 | 1003.5 |
| 20260507232003 | 49 | 222 | 1.0 | 8.0 | 0.00 | 0.54 | 0.16 | 84 | 1003.5 |
| 20260507231003 | 49 | 251 | 4.0 | 11.0 | 0.00 | 0.66 | 0.16 | 84 | 1003.1 |
| 20260507230024 | 49 | 244 | 3.0 | 6.0 | 0.00 | 0.73 | 0.16 | 83 | 1003.0 |
| 20260507225002 | 49 | 240 | 2.0 | 7.0 | 0.00 | 0.78 | 0.16 | 83 | 1003.0 |
| 20260507224003 | 49 | 244 | 5.0 | 13.0 | 0.00 | 0.85 | 0.16 | 83 | 1002.9 |
| 20260507223002 | 50 | 205 | 11.0 | 15.0 | 0.00 | 0.97 | 0.16 | 83 | 1002.6 |
| 20260507222003 | 50 | 216 | 7.0 | 12.0 | 0.00 | 1.08 | 0.16 | 84 | 1002.4 |
| 20260507221003 | 49 | 233 | 5.0 | 12.0 | 0.00 | 1.14 | 0.16 | 84 | 1002.4 |
| 20260507220002 | 50 | 230 | 6.0 | 15.0 | 0.00 | 1.23 | 0.16 | 82 | 1002.2 |
| 20260507215003 | 50 | 219 | 12.0 | 16.0 | 0.00 | 1.27 | 0.16 | 84 | 1002.2 |
| 20260507214003 | 50 | 216 | 12.0 | 17.0 | 0.00 | 1.29 | 0.16 | 83 | 1002.3 |
| 20260507213003 | 50 | 214 | 12.0 | 18.0 | 0.00 | 1.32 | 0.16 | 83 | 1002.3 |
| 20260507212003 | 50 | 216 | 12.0 | 17.0 | 0.00 | 1.33 | 0.16 | 82 | 1002.3 |
| 20260507211003 | 51 | 217 | 14.0 | 22.0 | 0.00 | 1.34 | 0.16 | 81 | 1002.3 |
| 20260507210003 | 51 | 212 | 13.0 | 19.0 | 0.00 | 1.36 | 0.16 | 81 | 1002.3 |
| 20260507205003 | 51 | 214 | 13.0 | 19.0 | 0.00 | 1.38 | 0.16 | 82 | 1002.2 |
| 20260507204003 | 51 | 215 | 13.0 | 18.0 | 0.00 | 1.39 | 0.16 | 82 | 1002.0 |
| 20260507203003 | 51 | 215 | 12.0 | 19.0 | 0.00 | 1.40 | 0.16 | 82 | 1002.0 |
| 20260507202002 | 51 | 215 | 13.0 | 20.0 | 0.00 | 1.40 | 0.16 | 82 | 1002.1 |
| 20260507201003 | 51 | 209 | 13.0 | 21.0 | 0.00 | 1.41 | 0.16 | 82 | 1002.2 |
| 20260507200024 | 51 | 216 | 13.0 | 20.0 | 0.00 | 1.42 | 0.16 | 82 | 1002.3 |
| 20260507195002 | 51 | 214 | 14.0 | 20.0 | 0.00 | 1.42 | 0.16 | 82 | 1002.3 |
| 20260507194003 | 51 | 206 | 16.0 | 20.0 | 0.00 | 1.42 | 0.16 | 80 | 1002.4 |
| 20260507193003 | 52 | 203 | 16.0 | 22.0 | 0.00 | 1.42 | 0.16 | 79 | 1002.5 |
| 20260507192003 | 52 | 204 | 18.0 | 22.0 | 0.00 | 1.42 | 0.16 | 78 | 1002.4 |
| 20260507191003 | 52 | 217 | 12.0 | 19.0 | 0.00 | 1.42 | 0.16 | 80 | 1002.5 |
| 20260507190004 | 52 | 215 | 12.0 | 17.0 | 0.00 | 1.42 | 0.16 | 80 | 1002.7 |
| 20260507185003 | 52 | 218 | 11.0 | 17.0 | 0.00 | 1.42 | 0.16 | 82 | 1002.7 |
| 20260507184024 | 52 | 217 | 7.0 | 12.0 | 0.00 | 1.42 | 0.16 | 83 | 1002.9 |
| 20260507183003 | 52 | 211 | 9.0 | 12.0 | 0.00 | 1.42 | 0.16 | 83 | 1003.0 |
| 20260507182003 | 52 | 215 | 8.0 | 16.0 | 0.00 | 1.42 | 0.16 | 83 | 1003.1 |
| 20260507180003 | 52 | 222 | 11.0 | 17.0 | 0.00 | 1.42 | 0.16 | 84 | 1003.1 |
| 20260507175002 | 52 | 222 | 14.0 | 18.0 | 0.00 | 1.42 | 0.16 | 85 | 1003.4 |
| 20260507174003 | 51 | 219 | 11.0 | 18.0 | 0.00 | 1.42 | 0.16 | 86 | 1003.6 |
| 20260507173004 | 51 | 221 | 13.0 | 17.0 | 0.00 | 1.42 | 0.16 | 86 | 1003.3 |
| 20260507172002 | 51 | 216 | 12.0 | 18.0 | 0.00 | 1.42 | 0.16 | 86 | 1003.3 |
| 20260507171003 | 52 | 221 | 9.0 | 16.0 | 0.00 | 1.42 | 0.16 | 86 | 1003.3 |
| 20260507170002 | 51 | 219 | 10.0 | 15.0 | 0.00 | 1.42 | 0.16 | 85 | 1003.4 |
| 20260507165003 | 52 | 217 | 11.0 | 15.0 | 0.00 | 1.42 | 0.16 | 84 | 1003.5 |
| 20260507164003 | 52 | 218 | 9.0 | 13.0 | 0.00 | 1.42 | 0.16 | 85 | 1003.5 |
| 20260507163045 | 52 | 225 | 11.0 | 14.0 | 0.00 | 1.42 | 0.16 | 85 | 1003.6 |
| 20260507162003 | 52 | 214 | 9.0 | 12.0 | 0.00 | 1.42 | 0.16 | 85 | 1004.0 |
| 20260507161025 | 52 | 226 | 11.0 | 14.0 | 0.00 | 1.42 | 0.16 | 86 | 1004.0 |
| 20260507160003 | 52 | 225 | 10.0 | 12.0 | 0.00 | 1.42 | 0.16 | 86 | 1004.1 |
| 20260507155003 | 52 | 221 | 7.0 | 11.0 | 0.00 | 1.42 | 0.16 | 87 | 1004.1 |
| 20260507154002 | 51 | 222 | 9.0 | 14.0 | 0.00 | 1.42 | 0.16 | 86 | 1004.2 |
| 20260507153003 | 51 | 219 | 11.0 | 15.0 | 0.00 | 1.42 | 0.16 | 87 | 1004.2 |
| 20260507152023 | 51 | 225 | 10.0 | 13.0 | 0.00 | 1.42 | 0.16 | 88 | 1004.2 |
| 20260507151003 | 51 | 219 | 7.0 | 10.0 | 0.00 | 1.42 | 0.16 | 87 | 1004.3 |
| 20260507150003 | 51 | 219 | 7.0 | 11.0 | 0.00 | 1.42 | 0.16 | 88 | 1004.3 |
| 20260507145024 | 51 | 218 | 7.0 | 10.0 | 0.00 | 1.42 | 0.16 | 88 | 1004.4 |
| 20260507144024 | 51 | 216 | 8.0 | 11.0 | 0.00 | 1.42 | 0.16 | 87 | 1004.5 |
| 20260507143002 | 51 | 209 | 6.0 | 10.0 | 0.00 | 1.42 | 0.16 | 87 | 1004.5 |
| 20260507142003 | 51 | 189 | 9.0 | 11.0 | 0.00 | 1.42 | 0.16 | 85 | 1004.5 |
| 20260507141024 | 52 | 184 | 9.0 | 11.0 | 0.00 | 1.42 | 0.16 | 84 | 1004.7 |
| 20260507140003 | 52 | 286 | 6.0 | 9.0 | 0.00 | 1.42 | 0.16 | 86 | 1004.6 |
| 20260507135003 | 52 | 297 | 6.0 | 11.0 | 0.00 | 1.42 | 0.16 | 87 | 1004.6 |
| 20260507134002 | 51 | 294 | 7.0 | 11.0 | 0.00 | 1.42 | 0.16 | 88 | 1004.5 |
| 20260507133003 | 51 | 303 | 6.0 | 11.0 | 0.00 | 1.42 | 0.16 | 89 | 1004.7 |
| 20260507132023 | 51 | 287 | 8.0 | 12.0 | 0.00 | 1.42 | 0.16 | 90 | 1004.8 |
| 20260507131003 | 50 | 286 | 8.0 | 13.0 | 0.00 | 1.42 | 0.16 | 91 | 1004.9 |
| 20260507130003 | 50 | 293 | 8.0 | 11.0 | 0.00 | 1.42 | 0.16 | 92 | 1005.1 |
| 20260507125003 | 49 | 286 | 7.0 | 12.0 | 0.00 | 1.42 | 0.16 | 92 | 1005.2 |
| 20260507124003 | 48 | 291 | 7.0 | 13.0 | 0.00 | 1.42 | 0.16 | 93 | 1005.1 |
| 20260507123002 | 48 | 300 | 7.0 | 11.0 | 0.00 | 1.42 | 0.16 | 94 | 1004.9 |
| 20260507122024 | 47 | 301 | 7.0 | 11.0 | 0.00 | 1.42 | 0.16 | 95 | 1004.9 |
| 20260507121024 | 47 | 288 | 7.0 | 12.0 | 0.00 | 1.42 | 0.16 | 95 | 1004.9 |
| 20260507120003 | 47 | 302 | 9.0 | 12.0 | 0.00 | 1.42 | 0.16 | 95 | 1004.5 |
| 20260507115003 | 47 | 294 | 7.0 | 11.0 | 0.00 | 1.42 | 0.16 | 95 | 1004.7 |
| 20260507114003 | 46 | 297 | 6.0 | 9.0 | 0.00 | 1.42 | 0.16 | 95 | 1004.8 |
| 20260507113004 | 47 | 287 | 6.0 | 9.0 | 0.00 | 1.42 | 0.16 | 95 | 1005.1 |
| 20260507112003 | 46 | 312 | 3.0 | 8.0 | 0.00 | 1.42 | 0.16 | 96 | 1005.1 |
| 20260507111002 | 46 | 330 | 3.0 | 9.0 | 0.00 | 1.42 | 0.16 | 96 | 1005.2 |
| 20260507110003 | 46 | 312 | 6.0 | 11.0 | 0.00 | 1.42 | 0.16 | 96 | 1005.0 |
| 20260507105003 | 46 | 294 | 8.0 | 10.0 | 0.00 | 1.42 | 0.16 | 95 | 1005.4 |
| 20260507104003 | 46 | 280 | 6.0 | 9.0 | 0.00 | 1.42 | 0.16 | 96 | 1006.0 |
| 20260507103003 | 46 | 288 | 7.0 | 10.0 | 0.00 | 1.42 | 0.16 | 95 | 1005.1 |
| 20260507102024 | 46 | 299 | 5.0 | 9.0 | 0.00 | 1.42 | 0.16 | 96 | 1005.0 |
| 20260507101002 | 46 | 294 | 7.0 | 10.0 | 0.00 | 1.42 | 0.16 | 96 | 1005.1 |
| 20260507100003 | 46 | 312 | 6.0 | 11.0 | 0.00 | 1.42 | 0.16 | 96 | 1004.6 |
| 20260507095002 | 46 | 303 | 7.0 | 11.0 | 0.01 | 1.42 | 0.16 | 96 | 1004.7 |
| 20260507094003 | 47 | 309 | 7.0 | 11.0 | 0.00 | 1.41 | 0.15 | 96 | 1004.5 |
| 20260507093003 | 47 | 311 | 8.0 | 13.0 | 0.00 | 1.41 | 0.15 | 96 | 1004.3 |
| 20260507092003 | 47 | 309 | 6.0 | 12.0 | 0.00 | 1.41 | 0.15 | 96 | 1004.6 |
| 20260507091003 | 48 | 302 | 7.0 | 12.0 | 0.00 | 1.41 | 0.15 | 96 | 1004.5 |
| 20260507090002 | 48 | 291 | 3.0 | 8.0 | 0.00 | 1.41 | 0.15 | 96 | 1004.6 |
| 20260507085003 | 49 | 317 | 4.0 | 7.0 | 0.00 | 1.41 | 0.15 | 96 | 1004.3 |
| 20260507084002 | 49 | 319 | 3.0 | 6.0 | 0.00 | 1.41 | 0.15 | 96 | 1004.1 |
| 20260507083003 | 49 | 335 | 3.0 | 9.0 | 0.00 | 1.41 | 0.15 | 96 | 1004.1 |
| 20260507082003 | 49 | 318 | 3.0 | 8.0 | 0.00 | 1.41 | 0.15 | 96 | 1004.3 |
| 20260507081003 | 49 | 291 | 3.0 | 10.0 | 0.00 | 1.41 | 0.15 | 96 | 1004.3 |
| 20260507080003 | 49 | 294 | 5.0 | 9.0 | 0.01 | 1.41 | 0.15 | 96 | 1004.1 |
| 20260507075002 | 49 | 289 | 3.0 | 10.0 | 0.01 | 1.41 | 0.15 | 96 | 1004.3 |
| 20260507074003 | 49 | 303 | 5.0 | 9.0 | 0.01 | 1.41 | 0.15 | 96 | 1003.5 |
| 20260507073004 | 49 | 297 | 4.0 | 7.0 | 0.01 | 1.41 | 0.15 | 96 | 1003.7 |
| 20260507072003 | 49 | 311 | 3.0 | 6.0 | 0.01 | 1.41 | 0.15 | 96 | 1003.6 |